TimePDT,TemperatureF,Dew PointF,Humidity,Sea Level PressureIn,VisibilityMPH,Wind Direction,Wind SpeedMPH,Gust SpeedMPH,PrecipitationIn,Events,Conditions,WindDirDegrees,DateUTC
12:56 AM,70.9,61.0,71,29.88,10.0,Calm,Calm,-,0.00,,Clear,0,2013-09-13 07:56:00
1:56 AM,70.0,61.0,73,29.88,10.0,SSE,6.9,-,0.00,Rain,Heavy Rain,160,2013-09-13 08:56:00
2:56 AM,70.0,59.9,70,29.86,10.0,SSE,8.1,-,0.00,Rain,Heavy Rain,160,2013-09-13 09:56:00
3:56 AM,70.0,59.9,70,29.85,10.0,Calm,Calm,-,0.00,Rain,Heavy Rain,0,2013-09-13 10:56:00
4:56 AM,68.9,59.9,73,29.85,10.0,SSE,6.9,-,0.00,Rain,Heavy Rain,160,2013-09-13 11:56:00
5:56 AM,66.9,59.9,78,29.85,10.0,SSE,5.8,-,0.00,Rain,Heavy Rain,160,2013-09-13 12:56:00
6:56 AM,68.0,59.9,75,29.86,10.0,SSW,6.9,-,N/A,,Clear,200,2013-09-13 13:56:00
7:56 AM,72.0,59.9,66,29.86,10.0,South,5.8,-,N/A,,Clear,180,2013-09-13 14:56:00
8:56 AM,75.9,59.0,56,29.87,10.0,SSW,3.5,-,N/A,,Clear,200,2013-09-13 15:56:00
9:56 AM,81.0,57.9,45,29.86,10.0,Calm,Calm,-,N/A,,Clear,0,2013-09-13 16:56:00
10:56 AM,83.8,57.9,41,29.84,10.0,Variable,5.8,-,N/A,,Clear,0,2013-09-13 17:56:00
11:56 AM,83.8,56.8,40,29.81,10.0,Calm,Calm,-,N/A,,Clear,0,2013-09-13 18:56:00
12:56 PM,88.0,54.9,32,29.78,10.0,NE,5.8,-,N/A,,Clear,40,2013-09-13 19:56:00
1:56 PM,91.9,52.9,26,29.75,10.0,Variable,5.8,-,N/A,,Clear,0,2013-09-13 20:56:00
2:56 PM,92.8,52.0,25,29.72,10.0,Variable,3.5,-,N/A,,Clear,0,2013-09-13 21:56:00
3:56 PM,93.9,52.9,25,29.70,10.0,NE,8.1,-,N/A,,Clear,50,2013-09-13 22:56:00
4:56 PM,91.9,52.9,26,29.69,10.0,NNE,10.4,-,N/A,,Clear,20,2013-09-13 23:56:00
5:56 PM,91.9,52.9,26,29.68,10.0,NE,6.9,-,N/A,,Clear,50,2013-09-14 00:56:00
6:56 PM,88.0,52.9,30,29.68,10.0,ENE,3.5,-,N/A,,Clear,60,2013-09-14 01:56:00
7:56 PM,84.9,55.9,37,29.69,10.0,Calm,Calm,-,N/A,,Clear,0,2013-09-14 02:56:00
8:56 PM,81.0,57.9,45,29.71,10.0,South,6.9,-,N/A,,Clear,170,2013-09-14 03:56:00
9:56 PM,79.9,57.9,47,29.73,10.0,Calm,Calm,-,N/A,,Clear,0,2013-09-14 04:56:00
10:56 PM,81.0,54.9,41,29.73,10.0,NNW,5.8,-,N/A,,Clear,340,2013-09-14 05:56:00
11:56 PM,77.0,57.9,52,29.74,10.0,Calm,Calm,-,N/A,,Clear,0,2013-09-14 06:56:00